User: anonymous   Login
Location: Columbia
(38.9520°N, 92.3340°W)
Time: 05:39:20
(UTC-05:00)
Language:

Cosmos 1603 - Orbit

View from above orbital plane
View from above orbital plane
View from above satellite
View from above satellite

Ground track
Ground track

The orbit data is extracted from the following two-line orbital elements,

1 15333U 84106A   16205.54905195  .00000031  00000-0  41013-4 0  9993
2 15333  71.0275  60.5232 0020490 341.5083  18.5292 14.14044413641808
Epoch (UTC): 23 July 2016 13:10:38
Eccentricity: 0.0020490
inclination: 71.0275°
perigee height: 831 km
apogee height: 860 km
right ascension of ascending node: 60.5232°
argument of perigee: 341.5083°
revolutions per day: 14.14044413
mean anomaly at epoch: 18.5292°
orbit number at epoch: 64180

The dashed part of the orbit path shows where the satellite is in the earth's shadow,  

DLR